El Paso, TX

2:01 PM MDT on June 26, 2017 (GMT -0600)
El Paso International

Weather History for KELP - April, 2014

Change the Weather History Date:

Monday, April 7, 2014

  Actual Average Record
Temperature  
Mean Temperature 63 °F 62 °F  
Max Temperature 74 °F 76 °F 92 °F (1986)
Min Temperature 51 °F 48 °F 25 °F (1983)
Degree Days  
Heating Degree Days 2 4  
Month to date heating degree days 28 34  
Since 1 July heating degree days 1993 2407  
Cooling Degree Days 0 2  
Month to date cooling degree days 11 8  
Year to date cooling degree days 36 18  
Growing Degree Days 14 (Base 50)    
Moisture  
Dew Point 12 °F    
Average Humidity 15    
Maximum Humidity 22    
Minimum Humidity 7    
Precipitation  
Precipitation 0.00 in 0.01 in 0.88 in (1912)
Month to date precipitation 0.00 0.05  
Year to date precipitation 0.18 1.17  
Snow  
Snow 0.00 in - - ()
Month to date snowfall 0.0  
Since 1 July snowfall T  
Snow Depth 0.00 in    
Sea Level Pressure  
Sea Level Pressure 29.92 in    
Wind  
Wind Speed 11 mph (NNW)    
Max Wind Speed 25 mph    
Max Gust Speed 43 mph    
Visibility 10 miles    
Events      
T = Trace of Precipitation, MM = Missing Value Source: NWS Daily Summary

Daily Weather History Graph

Daily Weather History Graph

Search for Another Location

Airport or City:

Trip Planner

Search our weather history database for the weather conditions in past years. The results will help you decide how hot, cold, wet, or windy it might be!

Date:

Astronomy

Apr. 07, 2014 Rise Set
Actual Time 6:46 AM MDT 7:29 PM MDT
Civil Twilight 6:21 AM MDT 7:53 PM MDT
Nautical Twilight 5:52 AM MDT 8:23 PM MDT
Astronomical Twilight 5:22 AM MDT 8:52 PM MDT
Moon 12:54 PM MDT (4/7) 1:58 AM MDT (4/7)
Length of Visible Light 13h 32m
Length of Day
12h 42m
First Quarter, 54% of the Moon is Illuminated
Apr 7
First Quarter
Apr 15
Full
Apr 22
Last Quarter
Apr 29
New
May 6
First Quarter

Hourly Weather History & Observations

Time (MDT) Temp. Dew Point Humidity Pressure Visibility Wind Dir Wind Speed Gust Speed Precip Events Conditions
12:51 AM 60.1 °F 21.9 °F 23% 29.78 in 10.0 mi Calm Calm - N/A   Scattered Clouds
1:51 AM 61.0 °F 16.0 °F 17% 29.78 in 10.0 mi WNW 15.0 mph - N/A   Scattered Clouds
2:51 AM 59.0 °F 10.9 °F 15% 29.80 in 10.0 mi NW 18.4 mph 25.3 mph N/A   Partly Cloudy
3:51 AM 59.0 °F 10.0 °F 14% 29.81 in 10.0 mi NW 15.0 mph - N/A   Clear
4:51 AM 57.9 °F 10.9 °F 16% 29.81 in 10.0 mi NW 12.7 mph - N/A   Clear
5:51 AM 57.0 °F 10.9 °F 16% 29.83 in 10.0 mi NW 11.5 mph - N/A   Clear
6:51 AM 55.9 °F 12.0 °F 18% 29.87 in 10.0 mi NW 15.0 mph - N/A   Clear
7:51 AM 57.9 °F 14.0 °F 18% 29.90 in 10.0 mi NNW 9.2 mph - N/A   Clear
8:51 AM 57.9 °F 14.0 °F 18% 29.93 in 10.0 mi North 9.2 mph - N/A   Clear
9:51 AM 62.1 °F 16.0 °F 17% 29.94 in 10.0 mi NW 20.7 mph - N/A   Clear
10:51 AM 64.0 °F 16.0 °F 16% 29.95 in 10.0 mi NW 15.0 mph 19.6 mph N/A   Clear
11:51 AM 66.0 °F 15.1 °F 14% 29.95 in 10.0 mi NW 17.3 mph 25.3 mph N/A   Partly Cloudy
12:51 PM 69.1 °F 15.1 °F 13% 29.94 in 10.0 mi NW 17.3 mph 31.1 mph N/A   Partly Cloudy
1:51 PM 69.1 °F 16.0 °F 13% 29.94 in 10.0 mi NW 12.7 mph 42.6 mph N/A   Partly Cloudy
2:51 PM 70.0 °F 17.1 °F 13% 29.94 in 10.0 mi WNW 8.1 mph 23.0 mph N/A   Partly Cloudy
3:25 PM 71.1 °F 15.1 °F 12% 30.07 in 10.0 mi NNE 9.2 mph - N/A   Partly Cloudy
3:51 PM 73.0 °F 12.0 °F 10% 29.92 in 10.0 mi NNW 17.3 mph 20.7 mph N/A   Partly Cloudy
4:51 PM 73.0 °F 7.0 °F 8% 29.92 in 10.0 mi North 12.7 mph 21.9 mph N/A   Clear
5:51 PM 73.9 °F 7.0 °F 8% 29.92 in 10.0 mi WNW 15.0 mph 20.7 mph N/A   Clear
6:51 PM 72.0 °F 6.1 °F 8% 29.94 in 10.0 mi North 8.1 mph - N/A   Clear
7:51 PM 66.9 °F 7.0 °F 10% 29.96 in 10.0 mi ENE 5.8 mph - N/A   Clear
8:51 PM 62.1 °F 8.1 °F 12% 30.01 in 10.0 mi SE 3.5 mph - N/A   Clear
9:51 PM 63.0 °F 9.0 °F 12% 30.01 in 10.0 mi Calm Calm - N/A   Clear
10:51 PM 61.0 °F 9.0 °F 13% 30.02 in 10.0 mi Calm Calm - N/A   Clear
11:51 PM 55.0 °F 8.1 °F 15% 30.04 in 10.0 mi Calm Calm - N/A   Clear